Time,TemperatureF,DewpointF,PressureIn,WindDirection,WindDirectionDegrees,WindSpeedMPH,WindSpeedGustMPH,Humidity,HourlyPrecipIn,Conditions,Clouds,dailyrainin,SoftwareType,DateUTC
2013-03-12 00:02:00,52.0,46.0,-100.00,WNW,290,5.0,-999.0,79,0.00,,,-99.99,,2013-03-12 07:02:00,
2013-03-12 00:12:00,52.0,46.0,-100.00,WNW,290,5.0,-999.0,79,0.00,,,-99.99,,2013-03-12 07:12:00,
2013-03-12 00:21:00,52.0,46.0,-100.00,WNW,290,5.0,-999.0,79,0.00,,,-99.99,,2013-03-12 07:21:00,
2013-03-12 00:32:00,52.0,46.0,-100.00,WNW,290,5.0,-999.0,79,0.00,,,-99.99,,2013-03-12 07:32:00,
2013-03-12 00:41:00,52.0,46.0,-100.00,WNW,290,5.0,-999.0,79,0.00,,,-99.99,,2013-03-12 07:41:00,
2013-03-12 01:02:00,53.0,47.0,-100.00,WNW,288,8.0,-999.0,80,0.00,,,-99.99,,2013-03-12 08:02:00,
2013-03-12 01:12:00,53.0,47.0,-100.00,WNW,288,8.0,-999.0,80,0.00,,,-99.99,,2013-03-12 08:12:00,
2013-03-12 01:22:00,53.0,47.0,-100.00,WNW,288,8.0,-999.0,80,0.00,,,-99.99,,2013-03-12 08:22:00,
2013-03-12 01:32:00,53.0,47.0,-100.00,WNW,288,8.0,-999.0,80,0.00,,,-99.99,,2013-03-12 08:32:00,
2013-03-12 01:41:00,53.0,47.0,-100.00,WNW,288,8.0,-999.0,80,0.00,,,-99.99,,2013-03-12 08:41:00,
2013-03-12 02:03:00,52.0,47.0,-100.00,West,276,3.0,-999.0,83,0.00,,,-99.99,,2013-03-12 09:03:00,
2013-03-12 02:11:00,52.0,47.0,-100.00,West,276,3.0,-999.0,83,0.00,,,-99.99,,2013-03-12 09:11:00,
2013-03-12 02:22:00,52.0,47.0,-100.00,West,276,3.0,-999.0,83,0.00,,,-99.99,,2013-03-12 09:22:00,
2013-03-12 02:32:00,52.0,47.0,-100.00,West,276,3.0,-999.0,83,0.00,,,-99.99,,2013-03-12 09:32:00,
2013-03-12 02:41:00,52.0,47.0,-100.00,West,276,3.0,-999.0,83,0.00,,,-99.99,,2013-03-12 09:41:00,
2013-03-12 03:02:00,53.0,47.0,-100.00,South,190,4.0,-999.0,78,0.00,,,-99.99,,2013-03-12 10:02:00,
2013-03-12 03:12:00,53.0,47.0,-100.00,South,190,4.0,-999.0,78,0.00,,,-99.99,,2013-03-12 10:12:00,
2013-03-12 03:22:00,53.0,47.0,-100.00,South,190,4.0,-999.0,78,0.00,,,-99.99,,2013-03-12 10:22:00,
2013-03-12 03:32:00,53.0,47.0,-100.00,South,190,4.0,-999.0,78,0.00,,,-99.99,,2013-03-12 10:32:00,
2013-03-12 03:41:00,53.0,47.0,-100.00,South,190,4.0,-999.0,78,0.00,,,-99.99,,2013-03-12 10:41:00,
2013-03-12 04:02:00,51.0,46.0,-100.00,North,7,2.0,-999.0,85,0.00,,,-99.99,,2013-03-12 11:02:00,
2013-03-12 04:12:00,51.0,46.0,-100.00,North,7,2.0,-999.0,85,0.00,,,-99.99,,2013-03-12 11:12:00,
2013-03-12 04:22:00,51.0,46.0,-100.00,North,7,2.0,-999.0,85,0.00,,,-99.99,,2013-03-12 11:22:00,
2013-03-12 04:32:00,51.0,46.0,-100.00,North,7,2.0,-999.0,85,0.00,,,-99.99,,2013-03-12 11:32:00,
2013-03-12 04:42:00,51.0,46.0,-100.00,North,7,2.0,-999.0,85,0.00,,,-99.99,,2013-03-12 11:42:00,
2013-03-12 05:02:00,48.0,46.0,-100.00,WNW,297,6.0,-999.0,93,0.00,,,-99.99,,2013-03-12 12:02:00,
2013-03-12 05:12:00,48.0,46.0,-100.00,WNW,297,6.0,-999.0,93,0.00,,,-99.99,,2013-03-12 12:12:00,
2013-03-12 05:22:00,48.0,46.0,-100.00,WNW,297,6.0,-999.0,93,0.00,,,-99.99,,2013-03-12 12:22:00,
2013-03-12 05:32:00,48.0,46.0,-100.00,WNW,297,6.0,-999.0,93,0.00,,,-99.99,,2013-03-12 12:32:00,
2013-03-12 05:41:00,48.0,46.0,-100.00,WNW,297,6.0,-999.0,93,0.00,,,-99.99,,2013-03-12 12:41:00,
2013-03-12 06:02:00,47.0,45.0,-100.00,NW,304,3.0,-999.0,93,0.00,,,-99.99,,2013-03-12 13:02:00,
2013-03-12 06:12:00,47.0,45.0,-100.00,NW,304,3.0,-999.0,93,0.00,,,-99.99,,2013-03-12 13:12:00,
2013-03-12 06:22:00,47.0,45.0,-100.00,NW,304,3.0,-999.0,93,0.00,,,-99.99,,2013-03-12 13:22:00,
2013-03-12 06:32:00,47.0,45.0,-100.00,NW,304,3.0,-999.0,93,0.00,,,-99.99,,2013-03-12 13:32:00,
2013-03-12 06:42:00,47.0,45.0,-100.00,NW,304,3.0,-999.0,93,0.00,,,-99.99,,2013-03-12 13:42:00,
2013-03-12 07:02:00,45.0,44.0,-100.00,NNW,343,2.0,-999.0,95,0.00,,,-99.99,,2013-03-12 14:02:00,
2013-03-12 07:12:00,45.0,44.0,-100.00,NNW,343,2.0,-999.0,95,0.00,,,-99.99,,2013-03-12 14:12:00,
2013-03-12 07:22:00,45.0,44.0,-100.00,NNW,343,2.0,-999.0,95,0.00,,,-99.99,,2013-03-12 14:22:00,
2013-03-12 07:32:00,45.0,44.0,-100.00,NNW,343,2.0,-999.0,95,0.00,,,-99.99,,2013-03-12 14:32:00,
2013-03-12 07:41:00,45.0,44.0,-100.00,NNW,343,2.0,-999.0,95,0.00,,,-99.99,,2013-03-12 14:41:00,
2013-03-12 08:02:00,45.0,44.0,-100.00,NNW,335,1.0,-999.0,96,0.00,,,-99.99,,2013-03-12 15:02:00,
2013-03-12 08:12:00,45.0,44.0,-100.00,NNW,335,1.0,-999.0,96,0.00,,,-99.99,,2013-03-12 15:12:00,
2013-03-12 08:22:00,45.0,44.0,-100.00,NNW,335,1.0,-999.0,96,0.00,,,-99.99,,2013-03-12 15:22:00,
2013-03-12 08:32:00,45.0,44.0,-100.00,NNW,335,1.0,-999.0,96,0.00,,,-99.99,,2013-03-12 15:32:00,
2013-03-12 08:41:00,45.0,44.0,-100.00,NNW,335,1.0,-999.0,96,0.00,,,-99.99,,2013-03-12 15:41:00,
2013-03-12 09:02:00,48.0,47.0,-100.00,North,-999,0.0,-999.0,94,0.00,,,-99.99,,2013-03-12 16:02:00,
2013-03-12 09:12:00,48.0,47.0,-100.00,North,-999,0.0,-999.0,94,0.00,,,-99.99,,2013-03-12 16:12:00,
2013-03-12 09:22:00,48.0,47.0,-100.00,North,-999,0.0,-999.0,94,0.00,,,-99.99,,2013-03-12 16:22:00,
2013-03-12 09:32:00,48.0,47.0,-100.00,North,-999,0.0,-999.0,94,0.00,,,-99.99,,2013-03-12 16:32:00,
2013-03-12 09:42:00,48.0,47.0,-100.00,North,-999,0.0,-999.0,94,0.00,,,-99.99,,2013-03-12 16:42:00,
2013-03-12 10:02:00,54.0,49.0,-100.00,SE,124,1.0,-999.0,83,0.00,,,-99.99,,2013-03-12 17:02:00,
2013-03-12 10:12:00,54.0,49.0,-100.00,SE,124,1.0,-999.0,83,0.00,,,-99.99,,2013-03-12 17:12:00,
2013-03-12 10:22:00,54.0,49.0,-100.00,SE,124,1.0,-999.0,83,0.00,,,-99.99,,2013-03-12 17:22:00,
2013-03-12 10:33:00,54.0,49.0,-100.00,SE,124,1.0,-999.0,83,0.00,,,-99.99,,2013-03-12 17:33:00,
2013-03-12 10:42:00,54.0,49.0,-100.00,SE,124,1.0,-999.0,83,0.00,,,-99.99,,2013-03-12 17:42:00,
2013-03-12 11:02:00,59.0,50.0,-100.00,East,97,2.0,-999.0,73,-99.99,,,-99.99,,2013-03-12 18:02:00,
2013-03-12 11:12:00,59.0,50.0,-100.00,East,97,2.0,-999.0,73,-99.99,,,-99.99,,2013-03-12 18:12:00,
2013-03-12 11:22:00,59.0,50.0,-100.00,East,97,2.0,-999.0,73,-99.99,,,-99.99,,2013-03-12 18:22:00,
2013-03-12 11:32:00,59.0,50.0,-100.00,East,97,2.0,-999.0,73,-99.99,,,-99.99,,2013-03-12 18:32:00,
2013-03-12 11:42:00,59.0,50.0,-100.00,East,97,2.0,-999.0,73,-99.99,,,-99.99,,2013-03-12 18:42:00,
2013-03-12 12:03:00,62.0,50.0,-100.00,East,81,6.0,-999.0,63,0.00,,,-99.99,,2013-03-12 19:03:00,
2013-03-12 12:13:00,62.0,50.0,-100.00,East,81,6.0,-999.0,63,0.00,,,-99.99,,2013-03-12 19:13:00,
2013-03-12 12:22:00,62.0,50.0,-100.00,East,81,6.0,-999.0,63,0.00,,,-99.99,,2013-03-12 19:22:00,
2013-03-12 12:32:00,62.0,50.0,-100.00,East,81,6.0,-999.0,63,0.00,,,-99.99,,2013-03-12 19:32:00,
2013-03-12 12:43:00,62.0,50.0,-100.00,East,81,6.0,-999.0,63,0.00,,,-99.99,,2013-03-12 19:43:00,
2013-03-12 13:02:00,65.0,50.0,-100.00,ENE,65,8.0,-999.0,57,0.00,,,-99.99,,2013-03-12 20:02:00,
2013-03-12 13:12:00,65.0,50.0,-100.00,ENE,65,8.0,-999.0,57,0.00,,,-99.99,,2013-03-12 20:12:00,
2013-03-12 13:22:00,65.0,50.0,-100.00,ENE,65,8.0,-999.0,57,0.00,,,-99.99,,2013-03-12 20:22:00,
2013-03-12 13:32:00,65.0,50.0,-100.00,ENE,65,8.0,-999.0,57,0.00,,,-99.99,,2013-03-12 20:32:00,
2013-03-12 13:41:00,65.0,50.0,-100.00,ENE,65,8.0,-999.0,57,0.00,,,-99.99,,2013-03-12 20:41:00,
2013-03-12 14:02:00,68.0,48.0,-100.00,East,91,6.0,-999.0,48,0.00,,,-99.99,,2013-03-12 21:02:00,
2013-03-12 14:12:00,68.0,48.0,-100.00,East,91,6.0,-999.0,48,0.00,,,-99.99,,2013-03-12 21:12:00,
2013-03-12 14:22:00,68.0,48.0,-100.00,East,91,6.0,-999.0,48,0.00,,,-99.99,,2013-03-12 21:22:00,
2013-03-12 14:32:00,68.0,48.0,-100.00,East,91,6.0,-999.0,48,0.00,,,-99.99,,2013-03-12 21:32:00,
2013-03-12 14:42:00,68.0,48.0,-100.00,East,91,6.0,-999.0,48,0.00,,,-99.99,,2013-03-12 21:42:00,
2013-03-12 15:02:00,71.0,47.0,-100.00,ENE,73,4.0,-999.0,43,0.00,,,-99.99,,2013-03-12 22:02:00,
2013-03-12 15:12:00,71.0,47.0,-100.00,ENE,73,4.0,-999.0,43,0.00,,,-99.99,,2013-03-12 22:12:00,
2013-03-12 15:22:00,71.0,47.0,-100.00,ENE,73,4.0,-999.0,43,0.00,,,-99.99,,2013-03-12 22:22:00,
2013-03-12 15:32:00,71.0,47.0,-100.00,ENE,73,4.0,-999.0,43,0.00,,,-99.99,,2013-03-12 22:32:00,
2013-03-12 15:41:00,71.0,47.0,-100.00,ENE,73,4.0,-999.0,43,0.00,,,-99.99,,2013-03-12 22:41:00,
2013-03-12 16:02:00,73.0,48.0,-100.00,ESE,104,3.0,-999.0,42,0.00,,,-99.99,,2013-03-12 23:02:00,
2013-03-12 16:12:00,73.0,48.0,-100.00,ESE,104,3.0,-999.0,42,0.00,,,-99.99,,2013-03-12 23:12:00,
2013-03-12 16:22:00,73.0,48.0,-100.00,ESE,104,3.0,-999.0,42,0.00,,,-99.99,,2013-03-12 23:22:00,
2013-03-12 16:34:00,73.0,48.0,-100.00,ESE,104,3.0,-999.0,42,0.00,,,-99.99,,2013-03-12 23:34:00,
2013-03-12 16:42:00,73.0,48.0,-100.00,ESE,104,3.0,-999.0,42,0.00,,,-99.99,,2013-03-12 23:42:00,
2013-03-12 17:02:00,74.0,48.0,-100.00,SSW,213,4.0,-999.0,40,0.00,,,-99.99,,2013-03-13 00:02:00,
2013-03-12 17:12:00,74.0,48.0,-100.00,SSW,213,4.0,-999.0,40,0.00,,,-99.99,,2013-03-13 00:12:00,
2013-03-12 17:22:00,74.0,48.0,-100.00,SSW,213,4.0,-999.0,40,0.00,,,-99.99,,2013-03-13 00:22:00,
2013-03-12 17:32:00,74.0,48.0,-100.00,SSW,213,4.0,-999.0,40,0.00,,,-99.99,,2013-03-13 00:32:00,
2013-03-12 17:41:00,74.0,48.0,-100.00,SSW,213,4.0,-999.0,40,0.00,,,-99.99,,2013-03-13 00:41:00,
2013-03-12 18:02:00,74.0,48.0,-100.00,SSE,151,3.0,-999.0,41,0.00,,,-99.99,,2013-03-13 01:02:00,
2013-03-12 18:12:00,74.0,48.0,-100.00,SSE,151,3.0,-999.0,41,0.00,,,-99.99,,2013-03-13 01:12:00,
2013-03-12 18:22:00,74.0,48.0,-100.00,SSE,151,3.0,-999.0,41,0.00,,,-99.99,,2013-03-13 01:22:00,
2013-03-12 18:32:00,74.0,48.0,-100.00,SSE,151,3.0,-999.0,41,0.00,,,-99.99,,2013-03-13 01:32:00,
2013-03-12 18:42:00,74.0,48.0,-100.00,SSE,151,3.0,-999.0,41,0.00,,,-99.99,,2013-03-13 01:42:00,
2013-03-12 19:02:00,72.0,51.0,-100.00,West,260,5.0,-999.0,48,0.00,,,-99.99,,2013-03-13 02:02:00,
2013-03-12 19:12:00,72.0,51.0,-100.00,West,260,5.0,-999.0,48,0.00,,,-99.99,,2013-03-13 02:12:00,
2013-03-12 19:22:00,72.0,51.0,-100.00,West,260,5.0,-999.0,48,0.00,,,-99.99,,2013-03-13 02:22:00,
2013-03-12 19:32:00,72.0,51.0,-100.00,West,260,5.0,-999.0,48,0.00,,,-99.99,,2013-03-13 02:32:00,
2013-03-12 19:42:00,72.0,51.0,-100.00,West,260,5.0,-999.0,48,0.00,,,-99.99,,2013-03-13 02:42:00,
2013-03-12 20:02:00,66.0,54.0,-100.00,WSW,244,5.0,-999.0,64,0.00,,,-99.99,,2013-03-13 03:02:00,
2013-03-12 20:12:00,66.0,54.0,-100.00,WSW,244,5.0,-999.0,64,0.00,,,-99.99,,2013-03-13 03:12:00,
2013-03-12 20:22:00,66.0,54.0,-100.00,WSW,244,5.0,-999.0,64,0.00,,,-99.99,,2013-03-13 03:22:00,
2013-03-12 20:32:00,66.0,54.0,-100.00,WSW,244,5.0,-999.0,64,0.00,,,-99.99,,2013-03-13 03:32:00,
2013-03-12 20:41:00,66.0,54.0,-100.00,WSW,244,5.0,-999.0,64,0.00,,,-99.99,,2013-03-13 03:41:00,
2013-03-12 21:02:00,60.0,52.0,-100.00,West,265,5.0,-999.0,73,0.00,,,-99.99,,2013-03-13 04:02:00,
2013-03-12 21:12:00,60.0,52.0,-100.00,West,265,5.0,-999.0,73,0.00,,,-99.99,,2013-03-13 04:12:00,
2013-03-12 21:22:00,60.0,52.0,-100.00,West,265,5.0,-999.0,73,0.00,,,-99.99,,2013-03-13 04:22:00,
2013-03-12 21:31:00,60.0,52.0,-100.00,West,265,5.0,-999.0,73,0.00,,,-99.99,,2013-03-13 04:31:00,
2013-03-12 21:42:00,60.0,52.0,-100.00,West,265,5.0,-999.0,73,0.00,,,-99.99,,2013-03-13 04:42:00,
2013-03-12 22:02:00,60.0,48.0,-100.00,West,260,7.0,-999.0,66,0.00,,,-99.99,,2013-03-13 05:02:00,
2013-03-12 22:12:00,60.0,48.0,-100.00,West,260,7.0,-999.0,66,0.00,,,-99.99,,2013-03-13 05:12:00,
2013-03-12 22:22:00,60.0,48.0,-100.00,West,260,7.0,-999.0,66,0.00,,,-99.99,,2013-03-13 05:22:00,
2013-03-12 22:32:00,60.0,48.0,-100.00,West,260,7.0,-999.0,66,0.00,,,-99.99,,2013-03-13 05:32:00,
2013-03-12 22:42:00,60.0,48.0,-100.00,West,260,7.0,-999.0,66,0.00,,,-99.99,,2013-03-13 05:42:00,
2013-03-12 23:02:00,58.0,49.0,-100.00,SW,219,3.0,-999.0,70,0.00,,,-99.99,,2013-03-13 06:02:00,
2013-03-12 23:12:00,58.0,49.0,-100.00,SW,219,3.0,-999.0,70,0.00,,,-99.99,,2013-03-13 06:12:00,
2013-03-12 23:22:00,58.0,49.0,-100.00,SW,219,3.0,-999.0,70,0.00,,,-99.99,,2013-03-13 06:22:00,
2013-03-12 23:32:00,58.0,49.0,-100.00,SW,219,3.0,-999.0,70,0.00,,,-99.99,,2013-03-13 06:32:00,
2013-03-12 23:41:00,58.0,49.0,-100.00,SW,219,3.0,-999.0,70,0.00,,,-99.99,,2013-03-13 06:41:00,